Theta_e
347 345 347 349 346 343 343 342 343 335 332 332 341 347 346 346 348 346 345 346 342 342 341 342 342 340 339 339 338 339 338 337 337 336 336 336 336 335 334 335 336 337 337
343 349 351 352 348 348 347 347 345 338 339 334 333 341 341 345 348 347 345 347 346 345 343 345 344 342 341 340 340 340 340 339 337 336 335 336 336 336 335 334 332 333 334
341 349 353 353 344 346 348 345 341 336 340 342 343 341 341 345 348 347 345 347 347 347 345 343 343 345 343 342 340 340 339 339 338 338 337 334 335 336 335 335 334 333 333
343 345 350 352 350 347 349 350 347 345 342 345 342 341 346 344 344 339 342 345 337 337 344 336 331 344 344 343 342 340 340 338 337 337 334 331 334 335 335 335 334 334 333
353 350 349 352 349 350 350 338 337 345 347 344 343 342 344 348 349 347 341 338 339 338 336 346 345 344 344 344 343 341 334 329 330 335 334 330 331 333 334 334 334 334 333
353 351 347 351 355 355 352 348 347 346 350 346 346 342 344 346 346 345 344 344 343 341 341 341 343 342 342 343 342 339 337 337 334 335 334 330 329 329 328 331 333 331 323
352 354 348 349 350 349 350 353 347 350 345 346 349 344 347 348 347 347 345 345 344 338 344 341 338 339 341 341 339 336 336 336 336 335 332 330 326 326 328 329 324 320 324
349 350 352 347 343 342 344 350 352 351 347 349 348 347 348 347 345 348 346 345 343 343 342 338 335 336 337 336 334 333 332 333 334 335 333 328 326 325 323 321 321 325 327
345 343 344 344 341 346 342 349 352 348 349 348 346 348 348 347 347 348 345 343 342 341 340 336 334 334 333 332 332 331 331 328 329 330 333 332 328 326 320 323 325 326 327
346 343 340 345 343 335 340 350 353 352 350 349 351 347 346 348 350 348 345 342 339 339 336 335 334 332 331 329 326 327 328 326 323 325 329 330 331 331 329 326 327 326 327
345 345 347 348 348 347 344 349 352 354 348 352 353 347 348 350 349 348 345 338 338 338 337 334 332 331 330 328 328 324 317 311 312 311 312 322 328 329 330 330 331 331 331
348 350 350 349 349 350 349 349 352 349 353 353 352 348 352 349 347 342 336 336 337 336 335 333 330 326 320 318 316 315 312 311 312 312 312 312 313 320 329 329 329 329 329
349 349 348 349 349 350 349 347 351 353 356 354 351 350 347 343 339 338 336 333 337 336 333 330 325 321 318 315 316 316 317 315 318 316 312 310 315 313 315 322 326 328 325
350 352 350 351 350 349 344 351 354 355 355 352 353 347 341 338 341 337 329 327 332 333 330 327 321 320 318 316 316 320 320 319 318 317 316 316 315 312 313 315 315 320 324
349 352 350 348 348 345 347 353 357 355 354 355 348 344 340 340 338 336 333 328 322 325 321 321 320 319 316 318 319 319 319 318 318 317 316 317 317 317 315 313 314 316 315
356 352 346 345 343 344 347 356 357 354 355 352 347 338 339 338 338 332 317 312 319 321 320 321 319 317 319 319 320 319 318 318 317 317 317 318 317 316 316 316 316 315 315
350 353 349 344 344 346 349 358 358 353 357 348 346 333 328 325 319 315 312 313 317 320 320 321 319 320 319 319 320 318 318 318 317 317 318 317 318 317 315 315 315 315 316
344 344 345 345 349 352 355 357 358 355 353 349 344 331 325 323 316 316 314 317 319 319 317 319 318 318 318 318 319 318 318 318 317 318 318 317 317 318 317 317 317 317 315
343 344 346 347 352 355 357 360 359 358 351 349 340 328 319 313 310 311 314 320 323 320 314 315 316 316 317 318 318 318 319 320 318 318 317 317 317 317 317 317 316 317 317
344 345 348 351 354 353 358 361 359 358 351 347 335 322 314 309 308 307 307 311 312 316 312 311 318 318 318 318 318 319 320 321 319 317 317 317 316 316 316 317 316 316 316
345 345 349 352 352 358 359 360 361 354 351 343 329 320 312 308 307 306 304 304 303 304 314 318 318 318 317 318 319 319 320 320 318 318 317 317 316 315 316 316 316 316 316
345 344 348 349 355 360 360 362 360 355 349 340 326 318 310 308 307 306 304 305 306 309 314 319 319 319 318 318 318 320 320 320 318 318 318 317 316 315 316 316 316 316 316
344 340 345 350 359 361 362 360 357 354 348 336 323 316 309 309 309 308 307 308 310 311 312 318 319 319 319 319 318 319 321 319 318 317 317 317 315 314 315 315 316 316 316
344 343 346 355 359 360 362 360 356 353 346 332 321 316 311 311 309 309 309 310 312 312 311 316 318 319 319 319 319 318 320 319 318 317 316 316 315 315 316 316 315 317 319
344 345 350 352 356 360 361 359 355 351 346 332 321 318 311 309 310 309 307 310 312 313 311 313 316 318 319 319 318 317 319 319 319 318 317 316 317 316 316 316 315 316 318
344 347 351 354 355 360 361 357 355 351 347 333 323 317 310 308 309 310 309 312 313 315 314 312 315 318 318 319 318 317 317 315 315 317 317 317 317 317 316 314 313 314 316
Wind_Speed
7 6 6 8 12 10 16 15 6 22 21 13 13 8 7 9 11 13 15 10 7 9 10 6 9 11 12 14 15 14 13 12 12 13 13 14 14 14 14 14 15 16 17
2 7 12 14 13 12 12 12 16 17 25 10 12 6 8 6 8 8 7 11 8 8 6 8 12 13 14 14 15 13 11 11 12 12 12 12 14 14 15 15 14 14 15
0 2 8 11 17 6 8 12 15 20 22 23 18 15 11 4 6 7 7 10 5 5 10 16 16 14 12 14 14 15 14 14 13 13 12 13 14 15 16 16 15 14 15
4 4 8 10 14 10 10 13 15 16 25 26 25 21 17 8 7 10 9 10 15 12 11 12 16 14 9 15 15 14 15 17 10 10 9 11 13 14 15 15 15 15 15
5 10 5 8 10 12 12 30 16 21 24 26 26 25 21 16 16 15 17 12 18 12 13 4 6 11 8 10 12 16 6 17 4 9 9 11 13 14 14 14 15 15 15
4 8 7 11 12 16 17 26 23 21 23 29 27 25 20 19 17 17 24 16 14 13 5 9 12 12 7 1 2 1 1 6 5 6 7 8 11 13 14 15 16 15 16
7 7 9 9 12 15 20 24 25 22 25 31 30 32 17 14 12 23 14 14 12 7 4 5 12 11 8 9 9 8 6 3 4 4 6 8 11 13 15 15 16 17 17
9 9 11 14 14 16 16 20 25 27 32 29 28 24 17 11 27 9 15 16 12 9 3 7 5 9 9 10 12 11 6 2 4 8 9 10 11 12 14 16 17 19 18
10 9 9 14 16 17 18 21 26 28 29 31 27 24 18 14 28 6 13 14 13 9 7 6 11 10 10 10 12 10 11 6 1 4 8 12 13 14 16 18 21 17 18
10 13 14 17 20 19 18 19 23 25 26 27 26 24 21 19 15 8 12 17 14 8 12 10 9 10 10 13 15 14 16 13 10 7 7 10 13 17 18 19 19 21 22
12 10 12 13 15 17 18 18 21 24 25 25 23 24 21 15 10 7 11 15 12 12 12 13 11 6 7 10 13 17 18 12 10 8 10 12 13 18 21 22 22 23 23
8 14 17 12 13 16 17 18 20 20 20 22 23 20 16 15 12 12 14 13 11 10 8 3 2 4 10 14 17 17 14 12 10 7 6 9 12 14 17 20 21 20 19
7 11 9 7 12 15 21 18 17 18 17 21 17 16 12 13 14 15 13 13 8 3 5 4 4 9 19 17 18 19 16 14 16 9 3 6 9 12 15 18 18 18 17
7 7 5 5 9 18 16 17 16 15 17 17 11 12 13 14 13 11 10 10 8 7 5 2 8 15 19 19 19 12 16 16 15 13 10 7 7 11 13 15 19 23 25
11 12 13 14 18 20 18 13 13 16 15 12 14 8 8 8 7 7 10 12 7 8 9 7 8 11 15 18 11 11 14 14 15 12 12 12 10 9 13 15 17 18 23
8 11 13 14 15 13 11 11 12 14 11 13 11 7 4 5 6 9 10 8 7 10 7 8 7 11 11 13 11 12 12 14 15 15 12 11 7 3 9 14 15 18 19
14 15 16 12 11 11 9 8 12 13 10 11 9 7 8 7 7 9 12 12 9 10 10 7 7 7 10 11 9 12 15 15 15 16 15 12 9 5 1 4 8 10 14
15 13 12 9 9 9 5 8 11 12 6 6 9 7 7 7 7 8 8 9 11 10 6 5 5 8 13 8 8 11 14 16 16 14 15 14 13 9 6 2 4 7 11
14 11 11 10 10 10 5 8 10 9 4 5 6 6 7 7 8 8 9 8 5 4 5 5 9 13 10 4 7 10 12 14 14 15 10 15 16 14 8 5 3 3 7
14 12 12 10 9 7 7 7 9 9 3 4 4 5 7 8 10 10 9 6 4 4 7 9 12 13 9 7 8 9 10 11 11 12 5 11 17 16 12 7 5 6 8
15 13 13 10 5 2 7 10 9 10 3 2 2 4 6 8 9 10 11 13 12 12 15 17 22 21 12 8 9 11 10 8 9 15 9 10 17 14 11 6 5 6 8
14 11 11 9 5 7 7 9 9 6 1 2 2 4 5 7 8 10 13 16 18 22 24 24 26 30 21 9 7 11 10 9 10 16 9 9 12 12 10 8 7 10 12
13 11 10 7 11 10 11 10 7 4 2 2 3 5 4 6 8 9 12 15 22 25 26 27 30 33 30 20 10 9 10 7 13 14 5 9 9 11 9 9 12 13 7
14 13 12 12 12 12 12 10 4 5 4 5 5 5 3 4 7 9 11 14 18 20 23 24 29 33 33 26 19 13 7 5 11 12 7 8 11 14 12 12 17 10 3
16 15 14 15 14 14 12 11 6 7 7 7 6 4 2 2 4 8 11 14 17 17 16 20 22 26 29 28 28 24 19 9 16 18 15 11 8 16 18 17 22 16 14
17 17 16 16 14 14 13 12 9 9 9 9 8 7 6 4 4 6 11 13 16 12 10 15 15 20 22 28 31 30 29 28 22 18 15 15 14 4 18 23 24 20 24
Wind_Direction
46 20 13 26 37 20 26 29 58 27 14 3 2 31 43 49 0 351 342 332 221 326 223 247 248 234 229 230 224 218 215 213 214 215 215 211 209 205 203 201 199 203 207
76 334 7 5 27 10 11 23 359 1 18 17 3 30 356 33 43 333 347 332 281 315 248 282 263 247 241 239 240 239 228 222 215 212 210 216 215 208 206 202 200 198 202
141 51 15 29 12 356 357 346 360 351 357 22 22 17 16 18 15 324 310 293 228 301 266 283 272 293 262 259 252 249 240 224 217 215 206 207 212 210 205 204 202 200 197
19 8 355 1 349 343 354 351 2 7 7 10 12 18 26 21 350 333 308 288 337 321 296 293 293 263 284 275 263 251 252 233 221 228 207 207 213 213 207 199 197 194 191
19 353 320 1 356 338 346 8 359 6 9 8 8 11 17 13 350 313 326 295 286 323 322 357 297 306 308 262 266 252 231 360 202 220 217 202 212 208 211 204 201 191 188
302 341 341 354 336 337 339 354 3 359 16 6 2 4 16 11 29 359 335 331 353 321 326 334 343 330 330 346 324 51 31 127 137 213 220 208 201 209 208 198 193 187 184
295 308 324 320 335 328 338 352 347 355 3 2 356 355 18 7 3 342 355 358 4 31 87 55 344 340 16 10 46 55 68 131 193 210 223 202 205 204 200 194 191 177 179
285 297 323 325 321 328 342 350 354 355 355 357 354 352 352 6 343 360 10 19 29 40 37 82 27 20 24 36 34 30 50 79 190 207 208 203 199 202 199 194 188 185 188
347 348 316 336 347 348 348 345 344 349 347 346 352 359 352 332 336 327 22 13 12 360 33 71 46 16 9 11 20 13 2 9 39 204 208 208 205 206 201 198 192 198 199
333 347 6 7 359 347 346 337 334 334 340 344 347 350 342 333 328 324 349 15 6 32 95 84 73 43 18 352 344 332 324 317 307 275 240 220 217 216 219 220 224 215 217
320 348 335 336 347 344 333 330 327 340 341 337 348 342 346 360 359 4 1 30 41 72 88 104 82 53 359 334 322 321 326 324 318 301 266 247 231 220 220 222 225 228 235
303 311 307 304 326 335 334 329 332 341 331 338 343 346 346 0 17 34 34 47 48 102 100 102 58 27 3 336 330 338 342 340 347 334 285 252 236 230 225 223 221 219 217
280 316 336 307 325 324 329 328 342 340 336 335 343 343 7 42 53 50 40 35 46 124 131 112 32 4 357 352 351 349 343 358 3 6 338 264 250 240 228 218 215 213 210
255 347 339 306 308 313 322 337 339 329 332 341 346 1 52 51 39 43 35 28 65 108 114 112 22 0 358 357 354 5 10 357 351 347 332 305 258 245 243 234 220 217 221
250 270 282 286 296 310 320 338 334 331 346 353 1 22 63 52 38 10 350 348 16 124 88 56 7 9 2 357 11 18 6 358 348 341 340 324 298 243 226 230 227 222 221
235 239 263 288 298 311 336 346 330 348 352 10 12 46 59 26 1 346 360 13 52 70 62 27 35 14 7 15 7 11 9 3 4 356 359 0 350 320 229 223 225 223 215
243 258 278 294 309 327 350 341 338 345 2 2 17 24 41 29 20 23 51 68 66 47 43 74 52 34 9 12 23 11 7 354 3 8 11 8 13 17 335 225 229 228 218
261 267 275 298 313 330 1 331 327 343 5 6 15 22 30 23 31 27 40 52 63 57 68 108 46 357 349 23 32 21 13 3 11 11 27 21 21 18 19 345 241 232 227
259 265 278 292 309 323 300 310 323 338 42 10 19 26 46 48 60 62 59 62 70 89 60 358 345 340 343 52 37 31 17 5 2 11 27 27 21 15 350 316 288 249 235
260 269 272 273 282 310 270 296 307 338 350 21 27 40 54 56 62 50 54 52 25 323 358 18 19 20 36 82 62 39 29 2 3 352 318 342 351 347 355 325 277 255 242
262 269 259 262 269 172 279 285 287 331 10 58 60 60 62 60 63 68 65 62 59 62 53 46 35 29 41 69 51 26 17 10 5 353 339 341 342 345 353 354 320 290 265
258 245 246 242 224 244 266 247 294 310 326 122 91 103 85 80 83 72 68 64 65 58 55 45 46 39 39 41 26 18 12 20 8 348 334 7 352 353 3 353 342 305 274
237 234 232 215 217 241 257 272 309 288 233 162 131 120 111 95 85 75 64 59 62 59 52 49 47 41 34 28 9 6 33 14 15 7 348 336 8 24 31 12 355 327 279
232 227 232 220 227 242 253 268 243 263 205 169 149 123 89 106 79 69 65 61 59 55 50 50 48 46 42 35 22 6 13 26 9 31 34 43 47 49 47 19 13 20 18
224 233 222 225 229 237 249 258 231 222 203 175 164 139 144 108 77 73 67 77 74 64 52 42 52 46 39 36 40 46 59 67 50 35 32 33 48 53 48 42 33 46 81
229 225 221 228 233 236 243 253 226 227 212 190 172 166 162 156 135 105 95 83 79 72 57 41 49 49 39 37 37 43 47 40 39 45 34 42 49 67 49 57 49 71 91